SEJ488 VECC-VOPB

Flight info

Callsign SEJ488
Flight time 1h 59m
Altitude 33000
Route BOKEV2E BOKEV M773 BUBKO W111 PPB
Aircraft B739/M-SDFGHIRWY/LB1

Departure

Time 2026-05-05 08:47
Airport Netaji Subhash Chandra Bose International Airport (VECC)

Arrival

Time 2026-05-05 10:46
Airport Veer Savarkar International Airport / INS Utkrosh (VOPB)
Time Latitude Longitude Altitude Speed Heading
2026-05-05 08:31 22.64208 88.44227 27 ft 0 kts 95°
2026-05-05 08:36 22.64209 88.44209 28 ft 2 kts 95°
2026-05-05 08:36 22.64211 88.44192 28 ft 2 kts 95°
2026-05-05 08:36 22.64213 88.44174 28 ft 2 kts 101°
2026-05-05 08:37 22.64219 88.44157 28 ft 2 kts 138°
2026-05-05 08:37 22.64233 88.44149 28 ft 2 kts 187°
2026-05-05 08:37 22.64238 88.44149 28 ft 0 kts 187°
2026-05-05 08:40 22.64225 88.44148 28 ft 4 kts 187°
2026-05-05 08:40 22.64183 88.44142 28 ft 8 kts 187°
2026-05-05 08:41 22.64126 88.44135 28 ft 8 kts 187°
2026-05-05 08:41 22.64070 88.44128 28 ft 8 kts 186°
2026-05-05 08:41 22.64022 88.44148 27 ft 8 kts 126°
2026-05-05 08:41 22.64010 88.44204 27 ft 8 kts 96°
2026-05-05 08:42 22.64007 88.44235 27 ft 2 kts 96°
2026-05-05 08:42 22.64006 88.44237 27 ft 0 kts 96°
2026-05-05 08:42 22.64006 88.44246 27 ft 3 kts 96°
2026-05-05 08:42 22.64005 88.44287 28 ft 7 kts 80°
2026-05-05 08:43 22.64018 88.44339 28 ft 7 kts 73°
2026-05-05 08:43 22.64034 88.44387 28 ft 7 kts 56°
2026-05-05 08:43 22.64076 88.44411 28 ft 7 kts 13°
2026-05-05 08:43 22.64136 88.44419 29 ft 11 kts
2026-05-05 08:44 22.64206 88.44450 29 ft 10 kts 46°
2026-05-05 08:44 22.64237 88.44515 28 ft 6 kts 67°
2026-05-05 08:44 22.64243 88.44530 28 ft 0 kts 67°
2026-05-05 08:45 22.64244 88.44533 28 ft 1 kts 67°
2026-05-05 08:45 22.64253 88.44557 28 ft 7 kts 67°
2026-05-05 08:45 22.64274 88.44607 28 ft 7 kts 63°
2026-05-05 08:46 22.64306 88.44645 28 ft 7 kts 21°
2026-05-05 08:46 22.64326 88.44649 27 ft 0 kts
2026-05-05 08:46 22.64336 88.44651 27 ft 6 kts
2026-05-05 08:46 22.64593 88.44681 28 ft 72 kts
2026-05-05 08:47 22.65309 88.44764 28 ft 132 kts
2026-05-05 08:47 22.66393 88.44897 40 ft 178 kts
2026-05-05 08:47 22.67670 88.45024 591 ft 185 kts
2026-05-05 08:47 22.68980 88.45163 1185 ft 196 kts
2026-05-05 08:48 22.70408 88.45361 1392 ft 221 kts
2026-05-05 08:48 22.71974 88.45577 1796 ft 231 kts
2026-05-05 08:48 22.73589 88.45792 2371 ft 235 kts
2026-05-05 08:48 22.75274 88.46009 2737 ft 256 kts
2026-05-05 08:49 22.77089 88.46239 3258 ft 267 kts
2026-05-05 08:49 22.78949 88.46473 3955 ft 270 kts
2026-05-05 08:49 22.80826 88.46525 4673 ft 273 kts 345°
2026-05-05 08:49 22.82453 88.45527 5362 ft 273 kts 310°
2026-05-05 08:50 22.83375 88.43742 6076 ft 274 kts 288°
2026-05-05 08:50 22.83844 88.41726 6736 ft 278 kts 282°
2026-05-05 08:50 22.84220 88.39660 7390 ft 281 kts 281°
2026-05-05 08:50 22.84346 88.37549 8030 ft 284 kts 260°
2026-05-05 08:51 22.83628 88.35555 8694 ft 288 kts 235°
2026-05-05 08:51 22.82163 88.34080 9341 ft 292 kts 209°
2026-05-05 08:51 22.80241 88.33364 9978 ft 295 kts 192°
2026-05-05 08:51 22.78167 88.32964 10264 ft 313 kts 190°
2026-05-05 08:52 22.75972 88.32597 10415 ft 333 kts 189°
2026-05-05 08:52 22.73624 88.32204 10671 ft 347 kts 190°
2026-05-05 08:52 22.71216 88.31788 11157 ft 352 kts 190°
2026-05-05 08:52 22.68785 88.31354 11745 ft 354 kts 191°
2026-05-05 08:53 22.66350 88.30910 12340 ft 356 kts 191°
2026-05-05 08:53 22.63895 88.30459 12912 ft 359 kts 191°
2026-05-05 08:53 22.61421 88.29985 13470 ft 362 kts 192°
2026-05-05 08:53 22.58936 88.29459 13986 ft 365 kts 193°
2026-05-05 08:54 22.56437 88.28912 14513 ft 366 kts 193°
2026-05-05 08:54 22.53935 88.28361 15036 ft 368 kts 193°
2026-05-05 08:54 22.51422 88.27809 15546 ft 370 kts 193°
2026-05-05 08:54 22.48921 88.27262 16039 ft 373 kts 193°
2026-05-05 08:55 22.46354 88.26704 16267 ft 378 kts 193°
2026-05-05 08:55 22.43778 88.26146 16546 ft 378 kts 194°
2026-05-05 08:55 22.41191 88.25587 16958 ft 381 kts 194°
2026-05-05 08:55 22.38591 88.25026 17520 ft 381 kts 194°
2026-05-05 08:56 22.35991 88.24466 18041 ft 382 kts 194°
2026-05-05 08:56 22.33378 88.23904 18459 ft 384 kts 194°
2026-05-05 08:56 22.30742 88.23336 18895 ft 387 kts 194°
2026-05-05 08:56 22.28086 88.22764 19355 ft 388 kts 194°
2026-05-05 08:57 22.25440 88.22195 19781 ft 389 kts 194°
2026-05-05 08:57 22.22781 88.21624 20183 ft 390 kts 194°
2026-05-05 08:57 22.20145 88.21058 20566 ft 392 kts 194°
2026-05-05 08:57 22.17464 88.20481 20940 ft 394 kts 194°
2026-05-05 08:58 22.14772 88.19903 21340 ft 395 kts 194°
2026-05-05 08:58 22.12068 88.19323 21717 ft 396 kts 194°
2026-05-05 08:58 22.09356 88.18741 22075 ft 398 kts 194°
2026-05-05 08:58 22.06637 88.18158 22428 ft 400 kts 194°
2026-05-05 08:59 22.03897 88.17570 22777 ft 401 kts 194°
2026-05-05 08:59 22.01149 88.16981 23107 ft 403 kts 194°
2026-05-05 08:59 21.98397 88.16392 23433 ft 405 kts 194°
2026-05-05 08:59 21.95623 88.15797 23702 ft 406 kts 194°
2026-05-05 09:00 21.92843 88.15202 23962 ft 408 kts 194°
2026-05-05 09:00 21.90086 88.14612 24210 ft 409 kts 194°
2026-05-05 09:00 21.87284 88.14013 24458 ft 411 kts 195°
2026-05-05 09:00 21.84467 88.13410 24707 ft 413 kts 195°
2026-05-05 09:01 21.81643 88.12807 24938 ft 414 kts 195°
2026-05-05 09:01 21.78809 88.12201 25186 ft 416 kts 195°
2026-05-05 09:01 21.75961 88.11593 25420 ft 417 kts 195°
2026-05-05 09:01 21.73108 88.10984 25644 ft 419 kts 195°
2026-05-05 09:02 21.70240 88.10372 25867 ft 420 kts 195°
2026-05-05 09:02 21.67407 88.09767 26102 ft 421 kts 195°
2026-05-05 09:02 21.64515 88.09186 26322 ft 425 kts 191°
2026-05-05 09:02 21.61520 88.09234 26476 ft 437 kts 175°
2026-05-05 09:03 21.58523 88.09876 26725 ft 439 kts 172°
2026-05-05 09:03 21.55528 88.10595 26914 ft 442 kts 172°
2026-05-05 09:03 21.52519 88.11331 27090 ft 444 kts 172°
2026-05-05 09:03 21.49501 88.12060 27361 ft 443 kts 172°
2026-05-05 09:04 21.46512 88.12769 27874 ft 437 kts 173°
2026-05-05 09:04 21.43576 88.13452 28156 ft 437 kts 173°
2026-05-05 09:04 21.40590 88.14135 28301 ft 441 kts 173°
2026-05-05 09:04 21.37568 88.14822 28478 ft 443 kts 173°
2026-05-05 09:05 21.34541 88.15509 28680 ft 445 kts 173°
2026-05-05 09:05 21.31505 88.16200 28898 ft 446 kts 173°
2026-05-05 09:05 21.28464 88.16892 29097 ft 448 kts 173°
2026-05-05 09:05 21.25410 88.17588 29298 ft 449 kts 173°
2026-05-05 09:06 21.22387 88.18276 29506 ft 450 kts 173°
2026-05-05 09:06 21.19311 88.18977 29688 ft 452 kts 173°
2026-05-05 09:06 21.16233 88.19676 29882 ft 453 kts 173°
2026-05-05 09:06 21.13148 88.20399 30045 ft 455 kts 172°
2026-05-05 09:07 21.10051 88.21148 30208 ft 456 kts 172°
2026-05-05 09:07 21.06950 88.21905 30380 ft 457 kts 172°
2026-05-05 09:07 21.03848 88.22661 30565 ft 457 kts 172°
2026-05-05 09:07 21.00743 88.23414 30721 ft 458 kts 172°
2026-05-05 09:08 20.97632 88.24166 30922 ft 458 kts 172°
2026-05-05 09:08 20.94517 88.24917 31176 ft 457 kts 172°
2026-05-05 09:08 20.91413 88.25665 31438 ft 455 kts 172°
2026-05-05 09:08 20.88359 88.26395 31658 ft 455 kts 172°
2026-05-05 09:09 20.85268 88.27131 31877 ft 455 kts 173°
2026-05-05 09:09 20.82177 88.27865 32115 ft 454 kts 173°
2026-05-05 09:09 20.79095 88.28597 32362 ft 453 kts 173°
2026-05-05 09:09 20.76019 88.29328 32595 ft 453 kts 173°
2026-05-05 09:10 20.72944 88.30058 32826 ft 452 kts 173°
2026-05-05 09:10 20.66787 88.31520 32849 ft 453 kts 173°
2026-05-05 09:11 20.60631 88.32982 32845 ft 452 kts 173°
2026-05-05 09:11 20.54490 88.34439 32850 ft 451 kts 173°
2026-05-05 09:12 20.48404 88.35882 32850 ft 450 kts 173°
2026-05-05 09:12 20.43277 88.37096 32850 ft 450 kts 173°
2026-05-05 09:13 20.37199 88.38534 32848 ft 450 kts 173°
2026-05-05 09:13 20.31061 88.39984 32855 ft 453 kts 173°
2026-05-05 09:14 20.24863 88.41448 32855 ft 457 kts 173°
2026-05-05 09:14 20.18634 88.42918 32851 ft 460 kts 173°
2026-05-05 09:15 20.12407 88.44387 32850 ft 462 kts 173°
2026-05-05 09:15 20.06097 88.45875 32852 ft 464 kts 173°
2026-05-05 09:16 19.99781 88.47363 32847 ft 466 kts 173°
2026-05-05 09:16 19.93436 88.48857 32855 ft 467 kts 173°
2026-05-05 09:17 19.87130 88.50340 32838 ft 467 kts 173°
2026-05-05 09:17 19.80786 88.51831 32839 ft 466 kts 173°
2026-05-05 09:18 19.74460 88.53317 32842 ft 465 kts 172°
2026-05-05 09:18 19.68135 88.54801 32837 ft 464 kts 172°
2026-05-05 09:19 19.61829 88.56279 32839 ft 463 kts 173°
2026-05-05 09:19 19.55586 88.57741 32844 ft 461 kts 172°
2026-05-05 09:20 19.49311 88.59209 32844 ft 461 kts 173°
2026-05-05 09:20 19.43048 88.60674 32845 ft 460 kts 173°
2026-05-05 09:21 19.36787 88.62136 32847 ft 460 kts 173°
2026-05-05 09:21 19.30565 88.63589 32845 ft 460 kts 173°
2026-05-05 09:22 19.24302 88.65050 32845 ft 461 kts 172°
2026-05-05 09:22 19.18023 88.66496 32847 ft 460 kts 175°
2026-05-05 09:23 19.11743 88.67502 32855 ft 458 kts 177°
2026-05-05 09:23 19.05396 88.68377 32848 ft 458 kts 177°
2026-05-05 09:24 18.99098 88.69262 32843 ft 459 kts 177°
2026-05-05 09:24 18.92766 88.70180 32847 ft 459 kts 177°
2026-05-05 09:25 18.86423 88.71110 32846 ft 459 kts 177°
2026-05-05 09:25 18.80131 88.72032 32849 ft 459 kts 177°
2026-05-05 09:26 18.73804 88.72959 32844 ft 458 kts 177°
2026-05-05 09:26 18.67486 88.73882 32846 ft 457 kts 177°
2026-05-05 09:27 18.61183 88.74802 32847 ft 456 kts 177°
2026-05-05 09:27 18.54931 88.75714 32844 ft 456 kts 176°
2026-05-05 09:28 18.48646 88.76631 32846 ft 455 kts 176°
2026-05-05 09:28 18.42362 88.77546 32847 ft 455 kts 176°
2026-05-05 09:29 18.36095 88.78459 32844 ft 454 kts 176°
2026-05-05 09:29 18.29823 88.79371 32847 ft 454 kts 176°
2026-05-05 09:30 18.23597 88.80276 32848 ft 454 kts 176°
2026-05-05 09:30 18.17323 88.81188 32848 ft 454 kts 176°
2026-05-05 09:31 18.11053 88.82098 32848 ft 455 kts 176°
2026-05-05 09:31 18.04802 88.83005 32847 ft 455 kts 176°
2026-05-05 09:32 17.98519 88.83916 32850 ft 455 kts 176°
2026-05-05 09:32 17.92219 88.84832 32846 ft 456 kts 176°
2026-05-05 09:33 17.85925 88.85755 32849 ft 456 kts 176°
2026-05-05 09:33 17.79672 88.86674 32849 ft 456 kts 176°
2026-05-05 09:34 17.73358 88.87599 32850 ft 457 kts 176°
2026-05-05 09:34 17.67060 88.88522 32850 ft 457 kts 176°
2026-05-05 09:35 17.60802 88.89437 32850 ft 457 kts 176°
2026-05-05 09:35 17.51343 88.90820 32849 ft 457 kts 176°
2026-05-05 09:36 17.45041 88.91740 32848 ft 457 kts 176°
2026-05-05 09:36 17.38776 88.92655 32851 ft 457 kts 176°
2026-05-05 09:37 17.32481 88.93573 32849 ft 457 kts 176°
2026-05-05 09:37 17.26175 88.94492 32849 ft 457 kts 176°
2026-05-05 09:38 17.19870 88.95410 32848 ft 457 kts 176°
2026-05-05 09:38 17.13607 88.96326 32846 ft 457 kts 176°
2026-05-05 09:39 17.07310 88.97250 32847 ft 457 kts 175°
2026-05-05 09:39 17.00991 88.98178 32849 ft 457 kts 175°
2026-05-05 09:40 16.94683 88.99102 32851 ft 457 kts 175°
2026-05-05 09:40 16.88426 89.00017 32846 ft 457 kts 175°
2026-05-05 09:41 16.82119 89.00940 32851 ft 457 kts 175°
2026-05-05 09:41 16.75810 89.01862 32849 ft 457 kts 175°
2026-05-05 09:42 16.69498 89.02784 32850 ft 457 kts 175°
2026-05-05 09:42 16.63189 89.03705 32850 ft 457 kts 175°
2026-05-05 09:43 16.56923 89.04619 32853 ft 457 kts 175°
2026-05-05 09:43 16.50616 89.05539 32851 ft 457 kts 175°
2026-05-05 09:44 16.44344 89.06453 32850 ft 456 kts 175°
2026-05-05 09:44 16.38052 89.07369 32852 ft 456 kts 175°
2026-05-05 09:45 16.31764 89.08284 32856 ft 456 kts 175°
2026-05-05 09:45 16.25474 89.09200 32855 ft 456 kts 175°
2026-05-05 09:46 16.19185 89.10123 32857 ft 455 kts 175°
2026-05-05 09:46 16.12952 89.11040 32859 ft 455 kts 175°
2026-05-05 09:47 16.06681 89.11962 32858 ft 455 kts 175°
2026-05-05 09:47 16.00402 89.12883 32856 ft 455 kts 174°
2026-05-05 09:48 15.94128 89.13803 32858 ft 454 kts 174°
2026-05-05 09:48 15.87903 89.14716 32857 ft 454 kts 174°
2026-05-05 09:49 15.81628 89.15635 32856 ft 454 kts 174°
2026-05-05 09:49 15.75352 89.16553 32859 ft 454 kts 174°
2026-05-05 09:50 15.69128 89.17464 32855 ft 455 kts 174°
2026-05-05 09:50 15.62848 89.18382 32858 ft 455 kts 174°
2026-05-05 09:51 15.56572 89.19299 32858 ft 455 kts 174°
2026-05-05 09:51 15.50335 89.20210 32857 ft 455 kts 174°
2026-05-05 09:52 15.44046 89.21127 32857 ft 455 kts 174°
2026-05-05 09:52 15.37758 89.22044 32856 ft 455 kts 174°
2026-05-05 09:53 15.31513 89.22954 32858 ft 455 kts 174°
2026-05-05 09:53 15.25226 89.23870 32855 ft 456 kts 174°
2026-05-05 09:54 15.18943 89.24785 32857 ft 456 kts 174°
2026-05-05 09:54 15.12688 89.25695 32857 ft 456 kts 174°
2026-05-05 09:55 15.06387 89.26611 32856 ft 456 kts 174°
2026-05-05 09:55 15.00094 89.27525 32860 ft 457 kts 174°
2026-05-05 09:56 14.93788 89.28441 32860 ft 457 kts 174°
2026-05-05 09:56 14.87497 89.29355 32860 ft 458 kts 174°
2026-05-05 09:57 14.81211 89.30266 32860 ft 459 kts 174°
2026-05-05 09:57 14.74976 89.31696 32858 ft 462 kts 157°
2026-05-05 09:58 14.69666 89.35469 32861 ft 469 kts 135°
2026-05-05 09:58 14.65299 89.40453 32865 ft 471 kts 133°
2026-05-05 09:59 14.60939 89.45534 32862 ft 473 kts 133°
2026-05-05 09:59 14.56527 89.50603 32866 ft 474 kts 134°
2026-05-05 10:00 14.52120 89.55610 32866 ft 475 kts 134°
2026-05-05 10:00 14.47663 89.60653 32866 ft 475 kts 134°
2026-05-05 10:01 14.43955 89.64846 32867 ft 475 kts 134°
2026-05-05 10:01 14.39499 89.69883 32868 ft 475 kts 134°
2026-05-05 10:02 14.35043 89.74919 32862 ft 474 kts 134°
2026-05-05 10:02 14.30589 89.79951 32871 ft 473 kts 134°
2026-05-05 10:03 14.26166 89.84943 32871 ft 473 kts 134°
2026-05-05 10:03 14.21725 89.89953 32873 ft 472 kts 134°
2026-05-05 10:04 14.17312 89.94929 32871 ft 472 kts 134°
2026-05-05 10:04 14.12879 89.99923 32872 ft 472 kts 134°
2026-05-05 10:05 14.08468 90.04890 32873 ft 473 kts 134°
2026-05-05 10:05 14.04022 90.09893 32869 ft 473 kts 134°
2026-05-05 10:06 13.99571 90.14898 32874 ft 473 kts 133°
2026-05-05 10:06 13.95115 90.19907 32872 ft 474 kts 133°
2026-05-05 10:07 13.90685 90.24879 32870 ft 473 kts 133°
2026-05-05 10:07 13.86218 90.29868 32870 ft 473 kts 133°
2026-05-05 10:08 13.81750 90.34854 32869 ft 473 kts 133°
2026-05-05 10:08 13.77292 90.39829 32872 ft 472 kts 133°
2026-05-05 10:09 13.72842 90.44796 32874 ft 472 kts 133°
2026-05-05 10:09 13.68410 90.49739 32877 ft 471 kts 133°
2026-05-05 10:10 13.63961 90.54699 32876 ft 471 kts 133°
2026-05-05 10:10 13.59513 90.59654 32879 ft 470 kts 133°
2026-05-05 10:11 13.55102 90.64565 32876 ft 470 kts 133°
2026-05-05 10:11 13.50664 90.69502 32879 ft 469 kts 133°
2026-05-05 10:12 13.46226 90.74438 32873 ft 469 kts 133°
2026-05-05 10:12 13.41829 90.79326 32879 ft 468 kts 133°
2026-05-05 10:13 13.37404 90.84240 32881 ft 468 kts 133°
2026-05-05 10:13 13.32976 90.89156 32885 ft 468 kts 133°
2026-05-05 10:14 13.28553 90.94063 32880 ft 468 kts 133°
2026-05-05 10:14 13.24158 90.98936 32879 ft 467 kts 133°
2026-05-05 10:15 13.19742 91.03831 32879 ft 467 kts 133°
2026-05-05 10:15 13.15324 91.08723 32880 ft 467 kts 133°
2026-05-05 10:16 13.10909 91.13611 32877 ft 466 kts 133°
2026-05-05 10:16 13.06525 91.18461 32881 ft 466 kts 133°
2026-05-05 10:17 13.02109 91.23344 32877 ft 465 kts 133°
2026-05-05 10:17 12.97697 91.28219 32880 ft 465 kts 133°
2026-05-05 10:18 12.93291 91.33085 32880 ft 465 kts 133°
2026-05-05 10:18 12.88906 91.37926 32648 ft 469 kts 133°
2026-05-05 10:19 12.86678 91.40384 32321 ft 467 kts 133°
2026-05-05 10:19 12.84486 91.42802 32074 ft 456 kts 133°
2026-05-05 10:19 12.82351 91.45157 31821 ft 446 kts 133°
2026-05-05 10:19 12.80262 91.47462 31568 ft 434 kts 133°
2026-05-05 10:20 12.78237 91.49694 31316 ft 422 kts 133°
2026-05-05 10:20 12.76263 91.51869 31127 ft 412 kts 133°
2026-05-05 10:20 12.74352 91.53974 30803 ft 406 kts 133°
2026-05-05 10:20 12.72433 91.56088 30343 ft 405 kts 133°
2026-05-05 10:21 12.70517 91.58197 29860 ft 404 kts 133°
2026-05-05 10:21 12.68608 91.60297 29368 ft 401 kts 133°
2026-05-05 10:21 12.66712 91.62384 28931 ft 397 kts 133°
2026-05-05 10:21 12.64836 91.64448 28502 ft 393 kts 133°
2026-05-05 10:22 12.62978 91.66492 28065 ft 390 kts 133°
2026-05-05 10:22 12.61135 91.68519 27624 ft 387 kts 133°
2026-05-05 10:22 12.59304 91.70533 27197 ft 385 kts 133°
2026-05-05 10:22 12.57489 91.72528 26775 ft 382 kts 133°
2026-05-05 10:23 12.55686 91.74509 26361 ft 379 kts 133°
2026-05-05 10:23 12.53890 91.76483 25961 ft 377 kts 133°
2026-05-05 10:23 12.52133 91.78413 25570 ft 374 kts 133°
2026-05-05 10:23 12.50360 91.80360 25177 ft 372 kts 133°
2026-05-05 10:24 12.48599 91.82294 24782 ft 370 kts 133°
2026-05-05 10:24 12.46848 91.84217 24397 ft 368 kts 133°
2026-05-05 10:24 12.45105 91.86130 24026 ft 366 kts 133°
2026-05-05 10:24 12.43377 91.88026 23663 ft 364 kts 132°
2026-05-05 10:25 12.41656 91.89914 23264 ft 361 kts 132°
2026-05-05 10:25 12.39944 91.91793 22843 ft 359 kts 132°
2026-05-05 10:25 12.38270 91.93629 22465 ft 356 kts 133°
2026-05-05 10:25 12.36586 91.95475 22068 ft 353 kts 133°
2026-05-05 10:26 12.34916 91.97306 21673 ft 351 kts 133°
2026-05-05 10:26 12.33255 91.99127 21286 ft 348 kts 133°
2026-05-05 10:26 12.31603 92.00937 20915 ft 346 kts 133°
2026-05-05 10:26 12.29968 92.02729 20546 ft 343 kts 133°
2026-05-05 10:27 12.28343 92.04508 20190 ft 340 kts 133°
2026-05-05 10:27 12.26733 92.06272 19832 ft 338 kts 133°
2026-05-05 10:27 12.25132 92.08025 19477 ft 336 kts 133°
2026-05-05 10:27 12.23563 92.09743 19134 ft 333 kts 133°
2026-05-05 10:28 12.21982 92.11474 18793 ft 331 kts 133°
2026-05-05 10:28 12.20411 92.13194 18463 ft 328 kts 133°
2026-05-05 10:28 12.18851 92.14901 18124 ft 326 kts 133°
2026-05-05 10:28 12.17305 92.16592 17719 ft 325 kts 133°
2026-05-05 10:29 12.15789 92.18250 17348 ft 322 kts 133°
2026-05-05 10:29 12.14260 92.19923 16976 ft 320 kts 133°
2026-05-05 10:29 12.12742 92.21582 16610 ft 318 kts 133°
2026-05-05 10:29 12.11237 92.23228 16246 ft 316 kts 133°
2026-05-05 10:30 12.09744 92.24860 15895 ft 314 kts 133°
2026-05-05 10:30 12.08252 92.26490 15540 ft 312 kts 133°
2026-05-05 10:30 12.06788 92.28090 15218 ft 311 kts 133°
2026-05-05 10:30 12.05316 92.29699 14905 ft 309 kts 133°
2026-05-05 10:31 12.03858 92.31292 14566 ft 307 kts 133°
2026-05-05 10:31 12.02398 92.32886 14232 ft 305 kts 133°
2026-05-05 10:31 12.00950 92.34467 13918 ft 302 kts 133°
2026-05-05 10:31 11.99543 92.36004 13861 ft 290 kts 133°
2026-05-05 10:32 11.98191 92.37481 13750 ft 280 kts 133°
2026-05-05 10:32 11.96879 92.38913 13612 ft 271 kts 133°
2026-05-05 10:32 11.95609 92.40298 13471 ft 264 kts 133°
2026-05-05 10:32 11.94358 92.41663 13306 ft 262 kts 133°
2026-05-05 10:33 11.93120 92.43014 13043 ft 260 kts 133°
2026-05-05 10:33 11.91883 92.44364 12676 ft 261 kts 133°
2026-05-05 10:33 11.90644 92.45716 12330 ft 260 kts 133°
2026-05-05 10:33 11.89423 92.47046 12024 ft 259 kts 133°
2026-05-05 10:34 11.88194 92.48384 11718 ft 257 kts 134°
2026-05-05 10:34 11.86737 92.49423 11372 ft 257 kts 158°
2026-05-05 10:34 11.85005 92.49869 11072 ft 256 kts 169°
2026-05-05 10:34 11.83250 92.50165 10765 ft 256 kts 169°
2026-05-05 10:35 11.81493 92.50445 10467 ft 255 kts 170°
2026-05-05 10:35 11.79746 92.50724 10189 ft 254 kts 170°
2026-05-05 10:35 11.78005 92.51005 9897 ft 253 kts 169°
2026-05-05 10:35 11.76272 92.51289 9609 ft 252 kts 169°
2026-05-05 10:36 11.74558 92.51572 9308 ft 250 kts 169°
2026-05-05 10:36 11.72842 92.51857 9008 ft 249 kts 169°
2026-05-05 10:36 11.71147 92.52139 8779 ft 244 kts 169°
2026-05-05 10:36 11.69475 92.52419 8516 ft 240 kts 169°
2026-05-05 10:37 11.67836 92.52694 8187 ft 236 kts 169°
2026-05-05 10:37 11.66228 92.52964 7855 ft 232 kts 169°
2026-05-05 10:37 11.64668 92.53226 7552 ft 228 kts 169°
2026-05-05 10:37 11.63089 92.53491 7234 ft 225 kts 169°
2026-05-05 10:38 11.61557 92.53749 6932 ft 221 kts 169°
2026-05-05 10:38 11.60073 92.53998 6656 ft 216 kts 169°
2026-05-05 10:38 11.58607 92.54245 6372 ft 211 kts 169°
2026-05-05 10:38 11.57171 92.54487 6036 ft 208 kts 169°
2026-05-05 10:39 11.55759 92.54724 5731 ft 203 kts 169°
2026-05-05 10:39 11.54390 92.54954 5461 ft 196 kts 169°
2026-05-05 10:39 11.53059 92.55178 5181 ft 191 kts 169°
2026-05-05 10:39 11.51742 92.55399 4923 ft 192 kts 169°
2026-05-05 10:40 11.50421 92.55622 4691 ft 192 kts 169°
2026-05-05 10:40 11.49096 92.55845 4445 ft 193 kts 169°
2026-05-05 10:40 11.47824 92.56227 4165 ft 190 kts 142°
2026-05-05 10:40 11.46919 92.57177 3967 ft 185 kts 129°
2026-05-05 10:41 11.46400 92.58352 3672 ft 185 kts 87°
2026-05-05 10:41 11.46910 92.59499 3482 ft 181 kts 44°
2026-05-05 10:41 11.47819 92.60357 3343 ft 176 kts 46°
2026-05-05 10:41 11.48691 92.61207 3157 ft 171 kts 44°
2026-05-05 10:42 11.50402 92.62610 3014 ft 149 kts 39°
2026-05-05 10:42 11.51228 92.63242 2854 ft 149 kts 39°
2026-05-05 10:42 11.52081 92.63888 2670 ft 153 kts 38°
2026-05-05 10:43 11.52939 92.64535 2456 ft 152 kts 38°
2026-05-05 10:43 11.53785 92.65172 2268 ft 150 kts 38°
2026-05-05 10:43 11.54623 92.65803 2079 ft 150 kts 38°
2026-05-05 10:43 11.55470 92.66439 1897 ft 149 kts 37°
2026-05-05 10:44 11.56307 92.67071 1682 ft 149 kts 39°
2026-05-05 10:44 11.57132 92.67692 1511 ft 146 kts 38°
2026-05-05 10:44 11.57953 92.68312 1305 ft 147 kts 37°
2026-05-05 10:44 11.58764 92.68930 1124 ft 146 kts 38°
2026-05-05 10:45 11.59584 92.69547 951 ft 148 kts 38°
2026-05-05 10:45 11.60413 92.70196 806 ft 152 kts 36°
2026-05-05 10:45 11.61267 92.70828 626 ft 154 kts 36°
2026-05-05 10:45 11.62121 92.71479 365 ft 154 kts 36°
2026-05-05 10:46 11.62978 92.72113 140 ft 150 kts 35°
2026-05-05 10:46 11.63771 92.72701 39 ft 121 kts 36°
2026-05-05 10:46 11.64271 92.73073 23 ft 57 kts 36°
2026-05-05 10:46 11.64471 92.73225 26 ft 29 kts 36°
2026-05-05 10:47 11.64630 92.73344 30 ft 28 kts 35°
2026-05-05 10:47 11.64743 92.73428 37 ft 11 kts 36°
2026-05-05 10:47 11.64802 92.73435 41 ft 9 kts 315°
2026-05-05 10:47 11.64836 92.73381 41 ft 9 kts 311°
2026-05-05 10:48 11.64870 92.73371 42 ft 9 kts 23°
2026-05-05 10:48 11.64934 92.73418 44 ft 8 kts 37°
2026-05-05 10:48 11.64964 92.73441 44 ft 8 kts 34°
2026-05-05 10:48 11.65015 92.73459 46 ft 8 kts 24°
2026-05-05 10:49 11.65047 92.73478 48 ft 4 kts 12°
2026-05-05 10:49 11.65071 92.73461 47 ft 4 kts 313°
2026-05-05 10:49 11.65088 92.73440 47 ft 3 kts 308°
2026-05-05 10:49 11.65094 92.73432 46 ft 0 kts 308°
2026-05-05 10:50 11.65094 92.73431 46 ft 1 kts 308°
2026-05-05 10:50 11.65098 92.73426 46 ft 1 kts 308°
2026-05-05 10:50 11.65100 92.73424 46 ft 0 kts 308°